N3UJJ-1 Lothian MD US current weather conditions

sailwx.info

Wind from 298

Air temperature 8.9° C
Dewpoint 2.0° C

Last reported at 2020-Jan-26 21:08 UTC.
Time now 2020-Jan-26 21:50 UTC

Location: N 38°48' W 076°41'.
View on Google Maps.

See reports from other nearby stations

  
Tides and Currents Weather Stations Pressure Air Temp Water Temp Dewpoint Dewpoint Depression Visibility Wind Speed Wind Dir Waves Ship Positions
date/time (UTC)wind fromknots sea level pressurealtimeterstation pressurevisibilityair tempwater tempwave heightnotes
2020-Jan-26 21:08 298 8.9
2020-Jan-26 21:03 298 8.9
2020-Jan-26 20:59 298 8.9
2020-Jan-26 20:53 298 8.9
2020-Jan-26 20:48 304 9.4
2020-Jan-26 20:44 304 9.4
2020-Jan-26 20:38 304 9.4
2020-Jan-26 20:33 304 9.4
2020-Jan-26 20:29 304 9.4
2020-Jan-26 20:23 304 9.4
2020-Jan-26 20:18 304 9.4
2020-Jan-26 20:14 304 9.4
2020-Jan-26 20:08 324 9.4
2020-Jan-26 20:03 324 9.4
2020-Jan-26 19:58 250 9.4
2020-Jan-26 19:53 250 9.4
2020-Jan-26 19:48 250 9.4
2020-Jan-26 19:43 250 9.4
2020-Jan-26 19:38 234 9.4
2020-Jan-26 19:33 234 9.4
2020-Jan-26 19:28 313 10.0
2020-Jan-26 19:23 313 10.0
2020-Jan-26 19:18 334 9.4
2020-Jan-26 19:13 334 9.4
2020-Jan-26 19:08 334 9.4
2020-Jan-26 19:03 334 9.4
2020-Jan-26 18:58 334 9.4
2020-Jan-26 18:53 336 9.4
2020-Jan-26 18:48 310 9.4
2020-Jan-26 18:43 310 9.4
2020-Jan-26 18:38 336 9.4
2020-Jan-26 18:33 286 9.4
2020-Jan-26 18:28 328 9.4
2020-Jan-26 18:23 014 9.4
2020-Jan-26 18:18 015 9.4
2020-Jan-26 18:13 015 0 gusting 6 10.0
2020-Jan-26 18:08 317 9.4
2020-Jan-26 18:03 321 10.0
2020-Jan-26 17:58 321 10.0
2020-Jan-26 17:53 321 10.0
2020-Jan-26 17:48 321 10.6
2020-Jan-26 17:43 245 11.1
2020-Jan-26 17:38 265 11.1
2020-Jan-26 17:33 267 11.1
2020-Jan-26 17:28 267 11.7
2020-Jan-26 17:23 323 11.7
2020-Jan-26 17:18 323 11.1
2020-Jan-26 17:13 321 10.6
2020-Jan-26 17:09 321 10.6
2020-Jan-26 17:03 322 0 gusting 4 10.6
2020-Jan-26 16:58 329 10.6
2020-Jan-26 16:54 296 3 gusting 3 10.6
2020-Jan-26 16:48 312 10.6
2020-Jan-26 16:43 312 10.6
2020-Jan-26 16:38 312 10.6
2020-Jan-26 16:33 305 0 gusting 3 10.6
2020-Jan-26 16:28 310 10.6
2020-Jan-26 16:23 310 10.6
2020-Jan-26 16:18 355 10.6
2020-Jan-26 16:13 355 10.6
2020-Jan-26 16:08 289 10.6
2020-Jan-26 16:03 284 1 gusting 6 10.6
2020-Jan-26 15:58 321 0 gusting 4 10.6
2020-Jan-26 15:53 328 10.6
2020-Jan-26 15:48 330 10.6
2020-Jan-26 15:43 290 10.6
2020-Jan-26 15:38 290 10.6
2020-Jan-26 15:33 298 10.0
2020-Jan-26 15:28 304 10.0
2020-Jan-26 15:23 306 10.0
2020-Jan-26 15:18 305 10.0
2020-Jan-26 15:13 305 10.0
2020-Jan-26 15:08 307 0 gusting 4 10.0
2020-Jan-26 15:03 313 9.4
2020-Jan-26 14:58 313 9.4
2020-Jan-26 14:54 313 8.9
2020-Jan-26 14:48 313 8.9
2020-Jan-26 14:43 313 8.3
2020-Jan-26 14:38 313 8.3
2020-Jan-26 14:33 313 7.8
2020-Jan-26 14:28 313 7.2
2020-Jan-26 14:23 313 6.7
2020-Jan-26 14:18 313 6.1
2020-Jan-26 14:08 313 5.0
2020-Jan-26 14:03 313 4.4
2020-Jan-26 13:58 313 3.9
2020-Jan-26 13:49 313 3.3
2020-Jan-26 13:43 313 2.8
2020-Jan-26 13:38 313 2.2
2020-Jan-26 13:34 313 1.7
2020-Jan-26 13:28 313 1.1
2020-Jan-26 13:23 313 0.6
2020-Jan-26 13:19 313 0.6
2020-Jan-26 13:13 313 -0.0
2020-Jan-26 13:08 313 -0.0
2020-Jan-26 13:04 313 -0.0
2020-Jan-26 12:58 313 -0.0
2020-Jan-26 12:53 313 -0.0
2020-Jan-26 12:48 313 -0.0
2020-Jan-26 12:43 313 -0.0
2020-Jan-26 12:38 313 0.6
2020-Jan-26 12:33 313 0.6
2020-Jan-26 12:28 313 0.6
2020-Jan-26 12:23 313 0.6
2020-Jan-26 12:19 313 0.6
2020-Jan-26 12:08 313 0.6
2020-Jan-26 12:03 313 0.6
2020-Jan-26 11:58 313 0.6
2020-Jan-26 11:53 313 0.6
2020-Jan-26 11:48 313 0.6
2020-Jan-26 11:43 313 0.6
2020-Jan-26 11:38 313 0.6
2020-Jan-26 11:33 313 0.6
2020-Jan-26 11:28 313 0.6
2020-Jan-26 11:23 313 0.6
2020-Jan-26 11:18 313 0.6
2020-Jan-26 11:13 313 0.6
2020-Jan-26 11:08 313 0.6
2020-Jan-26 11:03 313 0.6
2020-Jan-26 10:58 313 0.6
2020-Jan-26 10:53 313 0.6
2020-Jan-26 10:48 313 0.6
2020-Jan-26 10:43 313 0.6
2020-Jan-26 10:38 313 0.6
2020-Jan-26 10:33 313 0.6
2020-Jan-26 10:28 313 0.6
2020-Jan-26 10:23 313 0.6
2020-Jan-26 10:18 313 0.6
2020-Jan-26 10:13 313 0.6
2020-Jan-26 10:08 313 0.6
2020-Jan-26 10:03 313 0.6
2020-Jan-26 09:59 313 0.6
2020-Jan-26 09:53 313 0.6
2020-Jan-26 09:48 313 0.6
2020-Jan-26 09:44 313 0.6
2020-Jan-26 09:38 313 0.6
2020-Jan-26 09:33 313 0.6
2020-Jan-26 09:29 313 0.6
2020-Jan-26 09:23 313 0.6
2020-Jan-26 09:18 313 0.6
2020-Jan-26 09:13 313 1.1
2020-Jan-26 09:08 313 1.1
2020-Jan-26 09:03 313 1.1
2020-Jan-26 08:58 313 1.1
2020-Jan-26 08:53 313 1.1
2020-Jan-26 08:48 313 1.1
2020-Jan-26 08:43 313 1.1
2020-Jan-26 08:38 313 1.1
2020-Jan-26 08:33 313 1.1
2020-Jan-26 08:28 313 1.1
2020-Jan-26 08:23 313 1.1
2020-Jan-26 08:18 313 1.7
2020-Jan-26 08:12 313 1.7
2020-Jan-26 08:08 313 1.7
2020-Jan-26 08:03 313 1.7
2020-Jan-26 07:58 313 2.2
2020-Jan-26 07:53 313 2.2
2020-Jan-26 07:48 313 2.2
2020-Jan-26 07:43 313 2.2
2020-Jan-26 07:38 313 2.2
2020-Jan-26 07:33 313 2.8
2020-Jan-26 07:28 313 2.8
2020-Jan-26 07:23 313 2.8
2020-Jan-26 07:18 313 2.8
2020-Jan-26 07:13 313 3.3
2020-Jan-26 07:08 313 3.3
2020-Jan-26 07:03 313 3.3
2020-Jan-26 06:58 313 3.9
2020-Jan-26 06:53 313 3.9
2020-Jan-26 06:48 313 3.9
2020-Jan-26 06:43 313 4.4
2020-Jan-26 06:38 313 4.4
2020-Jan-26 06:33 313 4.4
2020-Jan-26 06:28 313 4.4
2020-Jan-26 06:23 313 5.0
2020-Jan-26 06:18 313 5.0
2020-Jan-26 06:13 313 5.0
2020-Jan-26 06:08 313 5.0
2020-Jan-26 06:03 313 5.0
2020-Jan-26 05:58 313 5.0
2020-Jan-26 05:54 313 5.0
2020-Jan-26 05:48 313 5.0
2020-Jan-26 05:43 313 5.0
2020-Jan-26 05:39 313 5.0
2020-Jan-26 05:33 313 5.0
2020-Jan-26 05:28 313 5.0
2020-Jan-26 05:23 313 5.0
2020-Jan-26 05:18 313 5.0
2020-Jan-26 05:13 313 5.0
2020-Jan-26 05:08 313 5.0
2020-Jan-26 05:03 313 5.0
2020-Jan-26 04:58 313 5.0
2020-Jan-26 04:53 313 5.0
2020-Jan-26 04:48 313 5.0
2020-Jan-26 04:43 313 5.0
2020-Jan-26 04:38 313 4.4
2020-Jan-26 04:33 313 4.4
2020-Jan-26 04:28 313 4.4
2020-Jan-26 04:23 313 4.4
2020-Jan-26 04:18 313 4.4
2020-Jan-26 04:13 313 4.4
2020-Jan-26 04:08 313 4.4
2020-Jan-26 04:03 313 4.4
2020-Jan-26 03:58 313 3.9
2020-Jan-26 03:53 313 3.9
2020-Jan-26 03:48 313 3.9
2020-Jan-26 03:43 313 3.9
2020-Jan-26 03:38 313 3.9
2020-Jan-26 03:33 313 3.9
2020-Jan-26 03:28 313 4.4
2020-Jan-26 03:23 313 4.4
2020-Jan-26 03:18 313 4.4
2020-Jan-26 03:13 313 4.4
2020-Jan-26 03:08 313 4.4
2020-Jan-26 03:03 313 4.4
2020-Jan-26 02:58 313 4.4
2020-Jan-26 02:53 313 4.4
2020-Jan-26 02:48 313 4.4
2020-Jan-26 02:43 313 4.4
2020-Jan-26 02:38 313 5.0
2020-Jan-26 02:33 313 5.0
2020-Jan-26 02:28 313 5.0
2020-Jan-26 02:23 313 5.0
2020-Jan-26 02:19 313 5.6
2020-Jan-26 02:13 313 5.6
2020-Jan-26 02:08 313 6.1
2020-Jan-26 02:04 313 6.1
2020-Jan-26 01:58 313 6.1
2020-Jan-26 01:53 313 6.1
2020-Jan-26 01:48 313 6.7
2020-Jan-26 01:43 313 6.7
2020-Jan-26 01:38 313 6.7
2020-Jan-26 01:33 313 6.7
2020-Jan-26 01:28 313 6.7
2020-Jan-26 01:23 313 6.7
2020-Jan-26 01:18 313 6.7
2020-Jan-26 01:13 313 6.7
2020-Jan-26 01:08 313 6.7
2020-Jan-26 01:03 313 6.7
2020-Jan-26 00:58 313 6.7
2020-Jan-26 00:53 313 6.7
2020-Jan-26 00:48 313 6.7
2020-Jan-26 00:43 313 6.7
2020-Jan-26 00:38 313 6.7
2020-Jan-26 00:33 313 6.7
2020-Jan-26 00:28 313 6.7
2020-Jan-26 00:23 313 6.7
2020-Jan-26 00:18 313 6.7
2020-Jan-26 00:13 313 6.7
2020-Jan-26 00:08 313 7.2
2020-Jan-26 00:03 313 7.2
2020-Jan-25 23:58 313 7.2
2020-Jan-25 23:53 313 7.2
2020-Jan-25 23:48 313 7.2
2020-Jan-25 23:43 313 7.2
2020-Jan-25 23:38 313 7.2
2020-Jan-25 23:33 313 7.2
2020-Jan-25 23:28 312 7.2
2020-Jan-25 23:23 312 7.2
2020-Jan-25 23:18 312 7.2
2020-Jan-25 23:13 312 7.2
2020-Jan-25 23:08 312 7.2
2020-Jan-25 23:03 312 7.2
2020-Jan-25 22:58 312 7.2
2020-Jan-25 22:53 312 7.2
2020-Jan-25 22:48 312 7.2
2020-Jan-25 22:43 313 7.2
2020-Jan-25 22:38 313 7.2
2020-Jan-25 22:33 313 7.8
2020-Jan-25 22:28 313 7.8
2020-Jan-25 22:23 313 7.8
2020-Jan-25 22:18 313 8.3
2020-Jan-25 22:13 313 8.3
2020-Jan-25 22:08 313 8.3
2020-Jan-25 22:03 313 8.9
2020-Jan-25 21:59 313 8.9
2020-Jan-25 21:53 313 8.9
2020-Jan-25 21:48 313 8.9
2020-Jan-25 21:44 313 8.9
2020-Jan-25 21:38 056 9.4
2020-Jan-25 21:33 056 9.4
2020-Jan-25 21:29 056 9.4
2020-Jan-25 21:23 056 9.4
2020-Jan-25 21:18 055 9.4
2020-Jan-25 21:13 055 9.4
2020-Jan-25 21:08 055 9.4
2020-Jan-25 21:03 056 9.4
2020-Jan-25 20:58 084 9.4
2020-Jan-25 20:53 331 9.4
2020-Jan-25 20:48 331 9.4
2020-Jan-25 20:43 331 9.4
2020-Jan-25 20:38 331 10.0
2020-Jan-25 20:33 331 10.0
2020-Jan-25 20:28 331 10.0
2020-Jan-25 20:23 331 10.0
2020-Jan-25 20:18 331 10.0
2020-Jan-25 20:13 331 10.0
2020-Jan-25 20:08 331 10.6
2020-Jan-25 20:03 331 10.6
2020-Jan-25 19:58 331 0 gusting 3 10.6
2020-Jan-25 19:53 333 10.6
2020-Jan-25 19:48 333 10.6
2020-Jan-25 19:43 335 10.6
2020-Jan-25 19:38 335 10.6
2020-Jan-25 19:33 335 10.6
2020-Jan-25 19:28 335 10.6
2020-Jan-25 19:23 335 10.6
2020-Jan-25 19:18 340 10.6
2020-Jan-25 19:13 331 0 gusting 3 10.6
2020-Jan-25 19:08 014 10.6
2020-Jan-25 19:03 014 10.6
2020-Jan-25 18:58 014 10.6
2020-Jan-25 18:53 014 10.6
2020-Jan-25 18:48 014 10.6
2020-Jan-25 18:43 014 0 gusting 1 10.6
2020-Jan-25 18:38 014 10.6
2020-Jan-25 18:33 017 10.6
2020-Jan-25 18:28 017 10.6
2020-Jan-25 18:24 017 10.6
2020-Jan-25 18:18 017 10.6
2020-Jan-25 18:13 017 10.6
2020-Jan-25 18:09 017 10.0
2020-Jan-25 18:03 017 10.0
2020-Jan-25 17:58 017 10.0
2020-Jan-25 17:54 017 10.0
2020-Jan-25 17:48 017 10.0
2020-Jan-25 17:43 017 10.0
2020-Jan-25 17:38 017 10.0
2020-Jan-25 17:33 017 10.0
2020-Jan-25 17:28 017 10.0
2020-Jan-25 17:23 017 10.0
2020-Jan-25 17:18 017 10.0
2020-Jan-25 17:13 017 10.0
2020-Jan-25 17:08 017 10.0
2020-Jan-25 17:03 017 10.0
2020-Jan-25 16:58 017 10.0
2020-Jan-25 16:53 017 10.0
2020-Jan-25 16:48 017 10.0
2020-Jan-25 16:43 017 10.0
2020-Jan-25 16:38 017 10.0
2020-Jan-25 16:33 017 10.0
2020-Jan-25 16:28 017 9.4
2020-Jan-25 16:24 017 9.4
2020-Jan-25 16:18 017 9.4
2020-Jan-25 16:13 017 9.4
2020-Jan-25 16:08 017 9.4
2020-Jan-25 16:03 017 9.4
2020-Jan-25 15:58 017 9.4
2020-Jan-25 15:53 017 9.4
2020-Jan-25 15:45 017 9.4
2020-Jan-25 15:43 017 9.4
2020-Jan-25 15:38 017 8.9
2020-Jan-25 15:33 017 8.9
2020-Jan-25 15:28 017 8.9
2020-Jan-25 15:23 017 8.9
2020-Jan-25 15:18 017 8.9
2020-Jan-25 15:13 017 8.9
2020-Jan-25 15:08 017 8.9
2020-Jan-25 15:03 017 8.9
2020-Jan-25 14:58 017 8.9
2020-Jan-25 14:53 017 8.9
2020-Jan-25 14:48 017 8.9
2020-Jan-25 14:43 017 8.3
2020-Jan-25 14:38 017 8.3
2020-Jan-25 14:34 017 8.3
2020-Jan-25 14:28 017 8.3
2020-Jan-25 14:23 017 8.3
2020-Jan-25 14:19 017 8.9
2020-Jan-25 14:13 017 8.3
2020-Jan-25 14:08 017 8.3
2020-Jan-25 14:03 017 8.3
2020-Jan-25 13:58 017 8.3
2020-Jan-25 13:53 017 8.3
2020-Jan-25 13:48 017 8.3
2020-Jan-25 13:43 017 8.3
2020-Jan-25 13:38 017 8.3
2020-Jan-25 13:33 049 2 gusting 6 8.3
2020-Jan-25 13:28 333 1 gusting 7 8.3
2020-Jan-25 13:23 024 2 gusting 8 8.3
2020-Jan-25 13:18 018 3 gusting 8 8.3
2020-Jan-25 13:13 071 2 gusting 6 8.3
2020-Jan-25 13:08 043 4 gusting 8 8.3
2020-Jan-25 13:03 030 2 gusting 8 8.3
2020-Jan-25 12:58 036 1 gusting 7 8.3
2020-Jan-25 12:53 030 4 gusting 7 8.3
2020-Jan-25 12:48 026 1 gusting 8 8.3
2020-Jan-25 12:43 010 3 gusting 9 8.3
2020-Jan-25 12:38 035 5 gusting 9 8.3
2020-Jan-25 12:33 013 1 gusting 7 8.3
2020-Jan-25 12:28 360 4 gusting 7 8.3
2020-Jan-25 12:23 350 3 gusting 7 8.3
2020-Jan-25 12:18 018 3 gusting 5 8.3
2020-Jan-25 12:13 033 8.3
2020-Jan-25 12:08 033 8.3
2020-Jan-25 12:03 033 8.3
2020-Jan-25 11:58 033 8.3
2020-Jan-25 11:53 033 8.3
2020-Jan-25 11:48 033 8.3
2020-Jan-25 11:43 036 1 gusting 5 8.3
2020-Jan-25 11:38 011 0 gusting 5 8.9
2020-Jan-25 11:33 355 2 gusting 6 8.9
2020-Jan-25 11:28 026 8.9
2020-Jan-25 11:23 026 8.9
2020-Jan-25 11:18 026 8.9
2020-Jan-25 11:13 026 8.9
2020-Jan-25 11:08 087 8.9
2020-Jan-25 11:03 087 8.9
2020-Jan-25 10:58 088 8.9
2020-Jan-25 10:53 088 8.9
2020-Jan-25 10:48 088 8.9
2020-Jan-25 10:43 087 8.9
2020-Jan-25 10:38 087 8.9
2020-Jan-25 10:33 088 8.9
2020-Jan-25 10:28 089 8.9
2020-Jan-25 10:18 096 0 gusting 6 8.9
2020-Jan-25 10:14 047 4 gusting 6 8.9
2020-Jan-25 10:08 088 3 gusting 6 8.9
2020-Jan-25 10:03 057 2 gusting 6 8.9
2020-Jan-25 09:59 076 6 gusting 9 8.9
2020-Jan-25 09:53 101 2 gusting 6 8.9
2020-Jan-25 09:48 086 1 gusting 6 8.9
2020-Jan-25 09:44 063 0 gusting 9 8.9
2020-Jan-25 09:38 046 2 gusting 6 8.9
2020-Jan-25 09:33 081 0 gusting 7 8.9
2020-Jan-25 09:28 072 1 gusting 6 8.9
2020-Jan-25 09:23 034 4 gusting 9 8.9
2020-Jan-25 09:18 046 4 gusting 7 8.9
2020-Jan-25 09:13 058 5 gusting 6 8.9
2020-Jan-25 09:08 094 0 gusting 5 8.9
2020-Jan-25 09:03 092 0 gusting 6 8.9
2020-Jan-25 08:59 090 1 gusting 6 8.9
2020-Jan-25 08:53 068 0 gusting 6 8.9
2020-Jan-25 08:48 063 2 gusting 4 8.9
2020-Jan-25 08:43 153 1 gusting 4 8.9
2020-Jan-25 08:38 117 0 gusting 6 8.9
2020-Jan-25 08:33 051 1 gusting 6 8.9
2020-Jan-25 08:28 048 1 gusting 5 8.9
2020-Jan-25 08:23 159 1 gusting 5 8.9
2020-Jan-25 08:18 142 0 gusting 6 8.9
2020-Jan-25 08:14 073 1 gusting 9 8.9
2020-Jan-25 08:08 112 1 gusting 5 8.9
2020-Jan-25 08:03 053 1 gusting 6 8.9
2020-Jan-25 07:58 057 2 gusting 8 8.9
2020-Jan-25 07:53 066 4 gusting 9 8.9
2020-Jan-25 07:48 098 4 gusting 9 8.9
2020-Jan-25 07:44 067 8.9
2020-Jan-25 07:38 061 2 gusting 7 8.9
2020-Jan-25 07:33 163 0 gusting 7 8.9
2020-Jan-25 07:28 108 2 gusting 7 8.9
2020-Jan-25 07:23 035 1 gusting 7 8.9
2020-Jan-25 07:18 098 1 gusting 10 8.9
2020-Jan-25 07:13 172 1 gusting 10 8.9
2020-Jan-25 07:08 065 3 gusting 6 8.9
2020-Jan-25 07:03 110 3 gusting 6 8.9
2020-Jan-25 06:58 103 1 gusting 7 8.9
2020-Jan-25 06:53 047 3 gusting 12 8.9
2020-Jan-25 06:48 071 2 gusting 12 8.9
2020-Jan-25 06:43 076 4 gusting 9 8.9
2020-Jan-25 06:39 082 5 gusting 7 8.9
2020-Jan-25 06:33 080 2 gusting 7 8.3
2020-Jan-25 06:28 053 3 gusting 6 8.3
2020-Jan-25 06:24 099 3 gusting 7 8.3
2020-Jan-25 06:18 053 0 gusting 6 8.3
2020-Jan-25 06:13 052 3 gusting 6 8.3
2020-Jan-25 06:08 073 3 gusting 7 8.9
2020-Jan-25 06:03 123 2 gusting 6 8.9
2020-Jan-25 05:58 092 1 gusting 5 8.9
2020-Jan-25 05:53 087 1 gusting 7 8.9
2020-Jan-25 05:48 106 4 gusting 7 8.9
2020-Jan-25 05:43 092 3 gusting 7 8.9
2020-Jan-25 05:38 105 3 gusting 7 8.3
2020-Jan-25 05:33 055 3 gusting 6 8.3
2020-Jan-25 05:28 071 3 gusting 7 8.3
2020-Jan-25 05:23 094 4 gusting 7 8.3
2020-Jan-25 05:18 069 1 gusting 6 8.3
2020-Jan-25 05:13 061 3 gusting 6 8.9
2020-Jan-25 05:08 062 0 gusting 5 8.3
2020-Jan-25 05:03 090 1 gusting 6 8.3
2020-Jan-25 04:58 065 1 gusting 6 8.3
2020-Jan-25 04:54 108 8.3
2020-Jan-25 04:48 111 1 gusting 7 8.3
2020-Jan-25 04:43 072 1 gusting 6 8.3
2020-Jan-25 04:38 086 3 gusting 6 8.3
2020-Jan-25 04:33 056 1 gusting 6 8.3
2020-Jan-25 04:28 076 1 gusting 6 8.3
2020-Jan-25 04:23 089 3 gusting 7 8.3
2020-Jan-25 04:18 079 3 gusting 7 8.3
2020-Jan-25 04:13 101 1 gusting 6 8.3
2020-Jan-25 04:08 100 8.3
2020-Jan-25 04:03 087 2 gusting 6 8.3
2020-Jan-25 03:58 082 8.3
2020-Jan-25 03:53 053 0 gusting 4 8.3
2020-Jan-25 03:49 056 4 gusting 6 7.8
2020-Jan-25 03:43 046 3 gusting 8 7.8
2020-Jan-25 03:38 065 2 gusting 7 7.8
2020-Jan-25 03:34 057 3 gusting 8 7.8
2020-Jan-25 03:28 119 2 gusting 6 7.8
2020-Jan-25 03:23 072 2 gusting 6 7.8
2020-Jan-25 03:19 068 8.3
2020-Jan-25 03:13 090 3 gusting 5 8.3
2020-Jan-25 03:08 144 1 gusting 8 8.3
2020-Jan-25 03:03 181 0 gusting 9 8.3
2020-Jan-25 02:58 066 4 gusting 8 8.3
2020-Jan-25 02:53 086 4 gusting 6 8.3
2020-Jan-25 02:48 080 2 gusting 6 8.3
2020-Jan-25 02:43 053 3 gusting 6 8.3
2020-Jan-25 02:38 073 0 gusting 7 8.3
2020-Jan-25 02:33 112 1 gusting 7 8.3
2020-Jan-25 02:28 084 3 gusting 9 8.3
2020-Jan-25 02:23 055 3 gusting 9 8.3
2020-Jan-25 02:18 071 5 gusting 9 8.3
2020-Jan-25 02:13 057 4 gusting 8 8.3
2020-Jan-25 02:08 069 1 gusting 9 8.3
2020-Jan-25 02:03 057 6 gusting 8 8.3
2020-Jan-25 01:58 055 3 gusting 6 8.3
2020-Jan-25 01:53 039 0 gusting 6 8.3
2020-Jan-25 01:48 073 1 gusting 6 8.3
2020-Jan-25 01:43 074 3 gusting 9 8.3
2020-Jan-25 01:38 051 4 gusting 9 8.3
2020-Jan-25 01:33 051 1 gusting 8 8.3
2020-Jan-25 01:28 075 3 gusting 8 8.3
2020-Jan-25 01:23 040 3 gusting 8 8.3
2020-Jan-25 01:18 105 4 gusting 7 8.3
2020-Jan-25 01:13 086 2 gusting 7 8.3
2020-Jan-25 01:08 046 3 gusting 6 8.3
2020-Jan-25 01:03 095 2 gusting 7 8.9
2020-Jan-25 00:58 061 3 gusting 8 8.9
2020-Jan-25 00:53 044 5 gusting 8 8.9
2020-Jan-25 00:48 105 4 gusting 8 8.9
2020-Jan-25 00:43 056 4 gusting 8 8.9
2020-Jan-25 00:38 082 2 gusting 8 9.4
2020-Jan-25 00:33 090 6 gusting 8 9.4
2020-Jan-25 00:29 111 3 gusting 8 9.4
2020-Jan-25 00:23 084 2 gusting 7 9.4
2020-Jan-25 00:18 065 3 gusting 6 9.4
2020-Jan-25 00:14 080 9.4
2020-Jan-25 00:08 055 4 gusting 7 9.4
2020-Jan-25 00:03 083 2 gusting 6 10.0
2020-Jan-24 23:58 067 10.0
2020-Jan-24 23:53 100 0 gusting 7 10.0
2020-Jan-24 23:48 068 2 gusting 8 10.0
2020-Jan-24 23:43 063 4 gusting 8 10.0
2020-Jan-24 23:38 075 1 gusting 6 10.0
2020-Jan-24 23:33 073 1 gusting 6 10.0
2020-Jan-24 23:28 068 3 gusting 8 10.0
2020-Jan-24 23:23 059 2 gusting 6 10.0
2020-Jan-24 23:18 078 0 gusting 7 10.0
2020-Jan-24 23:13 084 4 gusting 7 10.6
2020-Jan-24 23:08 099 0 gusting 5 10.6
2020-Jan-24 23:03 076 1 gusting 6 10.6
2020-Jan-24 22:58 063 1 gusting 6 10.6
2020-Jan-24 22:53 071 2 gusting 6 10.6
2020-Jan-24 22:48 077 1 gusting 8 10.6
2020-Jan-24 22:43 069 1 gusting 8 10.6
2020-Jan-24 22:38 068 2 gusting 6 10.6
2020-Jan-24 22:33 077 2 gusting 6 10.6
2020-Jan-24 22:28 113 10.6
2020-Jan-24 22:23 089 10.6
2020-Jan-24 22:18 092 10.6
2020-Jan-24 22:13 070 11.1
2020-Jan-24 22:08 090 0 gusting 5 11.1
2020-Jan-24 22:03 072 0 gusting 4 11.1
2020-Jan-24 21:58 107 0 gusting 5 11.1
2020-Jan-24 21:53 053 11.1
2020-Jan-24 21:48 082 2 gusting 6 11.1
2020-Jan-24 21:43 056 0 gusting 6 11.1
2020-Jan-24 21:38 084 0 gusting 6 11.1
2020-Jan-24 21:33 117 11.1
2020-Jan-24 21:28 101 11.1
2020-Jan-24 21:24 074 1 gusting 6 11.1
2020-Jan-24 21:18 081 3 gusting 6 11.1
2020-Jan-24 21:13 067 2 gusting 6 11.1
2020-Jan-24 21:09 071 1 gusting 6 11.1
2020-Jan-24 21:03 055 3 gusting 6 11.1